This is the latest recevied weather packets stored in our database for station/object HP1MRA-15. If no packets are shown the sender has not sent any weather packets the latest 10 day(s).
| Time | Temp. | Humidity | Pressure | Rain* | Wind** | Luminosity | Snow |
|---|---|---|---|---|---|---|---|
| 1788220754 | 27.78° C | 75% | 1002.8 hPa | 0.25 mm | - | - | - |
| 1788220454 | 27.78° C | 75% | 1002.8 hPa | 0.25 mm | - | - | - |
| 1788220452 | 27.78° C | 75% | 1002.9 hPa | 0.25 mm | - | - | - |
| 1788220153 | 27.78° C | 75% | 1002.8 hPa | 0.25 mm | - | - | - |
| 1788219854 | 27.78° C | 76% | 1002.9 hPa | 0.25 mm | - | - | - |
| 1788219552 | 27.78° C | 77% | 1002.9 hPa | 0.25 mm | - | - | - |
| 1788219253 | 27.78° C | 75% | 1002.9 hPa | 0.25 mm | - | - | - |
| 1788218954 | 27.78° C | 76% | 1002.9 hPa | 0.25 mm | - | - | - |
| 1788218654 | 27.78° C | 76% | 1002.8 hPa | 0.25 mm | - | - | - |
| 1788218652 | 27.78° C | 76% | 1002.8 hPa | 0.25 mm | - | - | - |
| 1788218353 | 27.78° C | 77% | 1002.8 hPa | 0.25 mm | - | - | - |
| 1788218054 | 27.78° C | 75% | 1002.7 hPa | 0.25 mm | - | - | - |
| 1788217753 | 27.78° C | 75% | 1002.7 hPa | 0 mm | - | - | - |
| 1788217453 | 27.78° C | 75% | 1002.8 hPa | 0 mm | - | - | - |
| 1788217154 | 27.78° C | 74% | 1002.8 hPa | 0.76 mm | - | - | - |
| 1788216851 | 27.78° C | 74% | 1003 hPa | 2.54 mm | - | - | - |
| 1788216553 | 27.78° C | 74% | 1003 hPa | 7.62 mm | - | - | - |
| 1788216254 | 27.78° C | 74% | 1003.1 hPa | 11.94 mm | - | - | - |
| 1788215952 | 27.78° C | 74% | 1003 hPa | 15.24 mm | - | - | - |
| 1788215653 | 27.78° C | 74% | 1003 hPa | 17.78 mm | - | - | - |
| 1788215353 | 27.78° C | 74% | 1003 hPa | 21.84 mm | - | - | - |
| 1788215068 | - | - | 1002.8 hPa | 25.4 mm | - | - | - |
| 1788215068 | 27.78° C | 75% | 1002.8 hPa | 25.91 mm | - | - | - |
| 1788214753 | 27.78° C | 75% | 1002.7 hPa | 26.16 mm | - | - | - |
| 1788214453 | 27.78° C | 76% | 1002.8 hPa | 26.16 mm | - | - | - |
* Rain latest hour (hover to see other rain measurements)
** Current wind speed in m/s (hover to see current wind gust speed)